[TLELIST] Archives

 

[list_settings.list_name] Current TLEs

February 16th 2010 PST

HST 1 20580U 90037B 10042.17471048 .00000446 00000-0 21339-4 0 5153 2 20580 028.4707 342.4565 0003224 297.8634 062.1676 15.00891604885793 ISS (ZARYA) 1 25544U 98067A 10043.43102182 .00019994 00000-0 12992-3 0 5667 2 25544 051.6445 151.1609 0011006 318.8744 085.0717 15.75896363643827 CXO 1 25867U 99040B 10044.79166667 -.00000230 00000-0 10000-3 0 4284 2 25867 066.5293 059.4371 7967875 275.2402 000.7950 00.37806280 5922 ____________________________________________________________________ These 2-Line ...Continue Reading

[list_settings.list_name] Current TLEs

February 15th 2010 PST

HST 1 20580U 90037B 10042.17471048 .00000446 00000-0 21339-4 0 5153 2 20580 028.4707 342.4565 0003224 297.8634 062.1676 15.00891604885793 ISS (ZARYA) 1 25544U 98067A 10043.43102182 .00019994 00000-0 12992-3 0 5667 2 25544 051.6445 151.1609 0011006 318.8744 085.0717 15.75896363643827 CXO 1 25867U 99040B 10044.79166667 -.00000230 00000-0 10000-3 0 4284 2 25867 066.5293 059.4371 7967875 275.2402 000.7950 00.37806280 5922 ____________________________________________________________________ These 2-Line ...Continue Reading

[list_settings.list_name] Current TLEs

February 14th 2010 PST

HST 1 20580U 90037B 10042.17471048 .00000446 00000-0 21339-4 0 5153 2 20580 028.4707 342.4565 0003224 297.8634 062.1676 15.00891604885793 ISS (ZARYA) 1 25544U 98067A 10043.43102182 .00019994 00000-0 12992-3 0 5667 2 25544 051.6445 151.1609 0011006 318.8744 085.0717 15.75896363643827 CXO 1 25867U 99040B 10044.79166667 -.00000230 00000-0 10000-3 0 4284 2 25867 066.5293 059.4371 7967875 275.2402 000.7950 00.37806280 5922 ____________________________________________________________________ These 2-Line ...Continue Reading

[list_settings.list_name] Current TLEs

February 13th 2010 PST

HST 1 20580U 90037B 10042.17471048 .00000446 00000-0 21339-4 0 5153 2 20580 028.4707 342.4565 0003224 297.8634 062.1676 15.00891604885793 ISS (ZARYA) 1 25544U 98067A 10043.43102182 .00019994 00000-0 12992-3 0 5656 2 25544 051.6445 151.1609 0011006 318.8744 085.0717 15.75896363643827 CXO 1 25867U 99040B 10042.20833333 -.00000396 00000-0 10000-3 0 4271 2 25867 066.5162 059.5287 7964676 275.2335 009.1373 00.37806090 5915 ____________________________________________________________________ These 2-Line ...Continue Reading

[list_settings.list_name] Current TLEs

February 12th 2010 PST

HST 1 20580U 90037B 10042.17471048 .00000446 00000-0 21339-4 0 5153 2 20580 028.4707 342.4565 0003224 297.8634 062.1676 15.00891604885793 ISS (ZARYA) 1 25544U 98067A 10042.36298088 .00009220 00000-0 62382-4 0 5614 2 25544 051.6436 156.6615 0011251 314.3292 146.3680 15.75842469643654 CXO 1 25867U 99040B 10042.20833333 -.00000396 00000-0 10000-3 0 4271 2 25867 066.5162 059.5287 7964676 275.2335 009.1373 00.37806090 5915 ____________________________________________________________________ These 2-Line ...Continue Reading

[list_settings.list_name] Current TLEs

February 11th 2010 PST

HST 1 20580U 90037B 10039.31536863 .00000423 00000-0 19571-4 0 5141 2 20580 028.4702 001.1182 0003300 268.1978 091.8283 15.00889866885362 ISS (ZARYA) 1 25544U 98067A 10041.47298821 .00020464 00000-0 13285-3 0 5575 2 25544 051.6465 161.2389 0010796 309.9226 138.4817 15.75902812643514 CXO 1 25867U 99040B 10042.20833333 -.00000396 00000-0 10000-3 0 4271 2 25867 066.5162 059.5287 7964676 275.2335 009.1373 00.37806090 5915 ____________________________________________________________________ These 2-Line ...Continue Reading

[list_settings.list_name] Current TLEs

February 10th 2010 PST

HST 1 20580U 90037B 10039.31536863 .00000423 00000-0 19571-4 0 5141 2 20580 028.4702 001.1182 0003300 268.1978 091.8283 15.00889866885362 ISS (ZARYA) 1 25544U 98067A 10040.38873190 .00019275 00000-0 12567-3 0 5505 2 25544 051.6454 166.8195 0010777 303.5541 109.5214 15.75852402643347 CXO 1 25867U 99040B 10039.58333333 -.00000543 00000-0 10000-3 0 4266 2 25867 066.5047 059.6385 7961038 275.2193 011.8125 00.37807764 5901 ____________________________________________________________________ These 2-Line ...Continue Reading

[list_settings.list_name] Current TLEs

February 9th 2010 PST

HST 1 20580U 90037B 10036.19003978 .00000395 00000-0 17439-4 0 5138 2 20580 028.4700 021.5203 0003575 233.5784 126.4511 15.00888083884891 ISS (ZARYA) 1 25544U 98067A 10039.38158205 .00018195 00000-0 11910-3 0 5428 2 25544 051.6451 172.0046 0010773 299.2874 156.3631 15.75808068643188 CXO 1 25867U 99040B 10039.58333333 -.00000543 00000-0 10000-3 0 4266 2 25867 066.5047 059.6385 7961038 275.2193 011.8125 00.37807764 5901 ____________________________________________________________________ These 2-Line ...Continue Reading

[list_settings.list_name] Current TLEs

February 8th 2010 PST

HST 1 20580U 90037B 10036.19003978 .00000395 00000-0 17439-4 0 5138 2 20580 028.4700 021.5203 0003575 233.5784 126.4511 15.00888083884891 ISS (ZARYA) 1 25544U 98067A 10038.43444266 .00018047 00000-0 11836-3 0 5353 2 25544 051.6455 176.8816 0010732 295.3534 183.6938 15.75771941643030 CXO 1 25867U 99040B 10036.83333333 -.00000527 00000-0 10000-3 0 4252 2 25867 066.4941 059.7616 7954223 275.2054 357.4626 00.37808419 5896 ____________________________________________________________________ These 2-Line ...Continue Reading

[list_settings.list_name] Current TLEs

February 7th 2010 PST

HST 1 20580U 90037B 10036.19003978 .00000395 00000-0 17439-4 0 5138 2 20580 028.4700 021.5203 0003575 233.5784 126.4511 15.00888083884891 ISS (ZARYA) 1 25544U 98067A 10037.40750003 .00017709 00000-0 11642-3 0 5290 2 25544 051.6451 182.1667 0010818 290.9784 118.5874 15.75732450642872 CXO 1 25867U 99040B 10036.83333333 -.00000527 00000-0 10000-3 0 4252 2 25867 066.4941 059.7616 7954223 275.2054 357.4626 00.37808419 5896 ____________________________________________________________________ These 2-Line ...Continue Reading
  • This mailing list is a public mailing list - anyone may join or leave, at any time.
  • This mailing list is announce-only.

International Space Station (ISS) / Hubble Space Telescope (HST) / Chandra X-Ray Observatory Orbital Data via EMAIL

Privacy Policy:

Private list